EDT,Max TemperatureF,Mean TemperatureF,Min TemperatureF,Max Dew PointF,MeanDew PointF,Min DewpointF,Max Humidity, Mean Humidity, Min Humidity, Max Sea Level PressureIn, Mean Sea Level PressureIn, Min Sea Level PressureIn, Max VisibilityMiles, Mean VisibilityMiles, Min VisibilityMiles, Max Wind SpeedMPH, Mean Wind SpeedMPH, Max Gust SpeedMPH,PrecipitationIn, CloudCover, Events, WindDirDegrees
2011-3-1,44,32,19,23,19,15,85,63,32,30.39,30.30,30.17,10,8,3,8,2,,0.00,0,,176
2011-3-2,43,34,23,28,20,13,75,56,40,30.54,30.33,30.15,10,10,8,13,5,21,0.00,0,,2
2011-3-3,41,30,18,13,7,5,71,44,23,30.66,30.52,30.32,10,10,10,13,6,18,0.00,0,,122
2011-3-4,48,42,35,40,28,10,92,62,30,30.32,30.26,30.15,10,8,2,10,5,,0.49,6,Rain,172
2011-3-5,53,44,33,49,42,30,89,82,63,30.14,29.99,29.89,10,7,3,16,9,25,0.93,8,Rain,199
2011-3-6,34,31,28,29,25,21,93,82,74,30.20,30.06,29.97,10,7,1,16,9,23,0.28,8,Rain-Snow,360
2011-3-7,39,32,24,24,21,18,81,69,47,30.36,30.28,30.16,10,10,10,10,5,17,0.00,3,,356
2011-3-8,55,40,26,23,22,19,81,51,29,30.43,30.33,30.24,10,10,10,12,4,24,0.00,2,,141
2011-3-9,48,42,37,45,40,21,93,85,39,30.22,30.03,29.89,10,6,2,15,10,23,1.26,8,Rain,164
2011-3-10,48,40,33,46,39,30,93,87,81,29.88,29.81,29.76,10,6,1,14,7,18,0.80,8,Rain-Snow,303
2011-3-11,34,32,30,30,28,26,93,86,75,29.98,29.88,29.79,10,5,0,10,6,18,0.13,8,Fog-Snow,289
2011-3-12,60,43,26,37,30,24,92,63,32,30.01,29.89,29.77,10,9,3,17,7,29,0.00,3,,269
2011-3-13,41,38,35,28,27,25,76,65,60,30.36,30.22,30.02,10,10,10,12,7,21,0.00,8,,325
2011-3-14,48,38,30,31,26,22,93,66,39,30.45,30.38,30.32,10,9,2,9,2,,0.00,4,,55
2011-3-15,45,38,32,41,33,21,89,78,59,30.35,30.17,30.07,10,7,2,7,4,,0.21,6,Rain,137
2011-3-16,50,44,37,43,39,34,93,81,66,30.23,30.12,30.04,10,9,2,10,5,16,0.02,7,Rain,243
2011-3-17,66,50,35,38,36,32,93,65,34,30.27,30.16,29.96,10,8,2,14,6,24,0.00,0,,186
2011-3-18,71,62,50,52,42,26,64,47,22,30.16,30.03,29.93,10,10,10,15,7,25,0.00,5,,302
2011-3-19,52,44,37,34,27,22,71,52,34,30.57,30.41,30.19,10,10,10,10,6,16,0.00,1,,352
2011-3-20,63,46,30,34,24,18,72,46,20,30.58,30.39,30.10,10,10,10,13,5,,0.00,2,,146
2011-3-21,73,60,48,53,46,35,82,62,45,30.07,29.99,29.93,10,9,6,15,8,24,0.01,3,Rain-Thunderstorm,291
2011-3-22,53,46,41,39,36,33,87,70,53,30.09,30.02,29.88,10,9,5,12,3,,0.03,5,Rain,63
2011-3-23,70,54,39,52,43,36,88,79,53,29.82,29.54,29.33,10,7,1,25,6,37,0.63,7,Rain-Thunderstorm,342
2011-3-24,43,34,25,30,21,14,85,65,35,30.12,29.88,29.59,10,10,4,17,11,21,0.01,5,,356
2011-3-25,37,28,19,20,15,9,85,59,40,30.14,30.10,30.05,10,10,9,10,2,31,0.00,3,,341
2011-3-26,37,28,19,11,7,3,65,43,25,30.19,30.13,30.06,10,10,10,12,6,20,0.00,1,,53
2011-3-27,41,30,21,13,10,6,66,45,26,30.19,30.13,30.07,10,10,10,13,7,20,0.00,1,,39
2011-3-28,42,30,19,13,11,9,66,48,31,30.27,30.21,30.17,10,10,10,9,4,,0.00,0,,22
2011-3-29,46,32,18,17,13,10,81,49,23,30.35,30.27,30.22,10,10,10,8,1,,0.00,0,,26
2011-3-30,42,34,27,30,24,12,89,70,33,30.24,29.96,29.87,10,5,0,10,3,,0.17,7,Fog-Snow,34
2011-3-31,37,34,32,30,29,28,88,82,75,29.88,29.81,29.72,8,6,3,7,5,,0.00,8,,358